Time,TemperatureF,DewpointF,PressureIn,WindDirection,WindDirectionDegrees,WindSpeedMPH,WindSpeedGustMPH,Humidity,HourlyPrecipIn,Conditions,Clouds,dailyrainin,SoftwareType,DateUTC
2013-08-13 00:02:00,67.8,61.3,30.00,SSW,202,0.0,2.0,80,0.00,,,0.00,meteohub,2013-08-13 04:02:00,
2013-08-13 00:07:00,67.8,61.3,29.97,SSE,158,1.0,1.0,80,0.00,,,0.00,meteohub,2013-08-13 04:07:00,
2013-08-13 00:12:00,67.8,61.7,29.97,SSW,202,2.0,3.0,81,0.00,,,0.00,meteohub,2013-08-13 04:12:00,
2013-08-13 00:17:00,67.8,61.7,29.97,WSW,248,0.0,3.0,81,0.00,,,0.00,meteohub,2013-08-13 04:17:00,
2013-08-13 00:22:00,67.6,61.5,30.00,SW,225,0.0,3.0,81,0.00,,,0.00,meteohub,2013-08-13 04:22:00,
2013-08-13 00:27:00,67.5,61.3,30.00,SSW,202,1.0,2.0,81,0.00,,,0.00,meteohub,2013-08-13 04:27:00,
2013-08-13 00:32:00,67.5,61.3,30.00,South,180,2.0,2.0,81,0.00,,,0.00,meteohub,2013-08-13 04:32:00,
2013-08-13 00:37:00,67.3,61.5,29.97,SSW,202,0.0,2.0,82,0.00,,,0.00,meteohub,2013-08-13 04:37:00,
2013-08-13 00:42:00,67.3,61.5,29.97,SW,225,0.0,2.0,82,0.00,,,0.00,meteohub,2013-08-13 04:42:00,
2013-08-13 00:47:00,67.3,61.5,29.97,SSW,202,0.0,3.0,82,0.00,,,0.00,meteohub,2013-08-13 04:47:00,
2013-08-13 00:52:00,67.1,61.3,29.97,South,180,1.0,3.0,82,0.00,,,0.00,meteohub,2013-08-13 04:52:00,
2013-08-13 00:57:00,66.9,61.5,29.97,South,180,2.0,3.0,83,0.00,,,0.00,meteohub,2013-08-13 04:57:00,
2013-08-13 01:02:00,66.7,61.7,29.97,SSW,202,0.0,3.0,84,0.00,,,0.00,meteohub,2013-08-13 05:02:00,
2013-08-13 01:07:00,66.7,61.7,29.97,SSW,202,0.0,3.0,84,0.00,,,0.00,meteohub,2013-08-13 05:07:00,
2013-08-13 01:12:00,66.7,61.3,29.97,South,180,0.0,3.0,83,0.00,,,0.00,meteohub,2013-08-13 05:12:00,
2013-08-13 01:17:00,66.7,61.7,29.97,SW,225,0.0,2.0,84,0.00,,,0.00,meteohub,2013-08-13 05:17:00,
2013-08-13 01:22:00,66.7,61.3,29.97,South,180,0.0,2.0,83,0.00,,,0.00,meteohub,2013-08-13 05:22:00,
2013-08-13 01:27:00,66.6,61.5,29.97,SSW,202,0.0,2.0,84,0.00,,,0.00,meteohub,2013-08-13 05:27:00,
2013-08-13 01:32:00,66.6,61.5,29.97,South,180,1.0,2.0,84,0.00,,,0.00,meteohub,2013-08-13 05:32:00,
2013-08-13 01:37:00,66.6,61.9,29.97,South,180,0.0,1.0,85,0.00,,,0.00,meteohub,2013-08-13 05:37:00,
2013-08-13 01:42:00,66.6,61.9,29.97,South,180,1.0,1.0,85,0.00,,,0.00,meteohub,2013-08-13 05:42:00,
2013-08-13 01:47:00,66.6,61.9,29.97,SSW,202,1.0,1.0,85,0.00,,,0.00,meteohub,2013-08-13 05:47:00,
2013-08-13 01:52:00,66.6,61.9,29.94,South,180,0.0,2.0,85,0.00,,,0.00,meteohub,2013-08-13 05:52:00,
2013-08-13 01:57:00,66.6,61.9,29.94,South,180,0.0,2.0,85,0.00,,,0.00,meteohub,2013-08-13 05:57:00,
2013-08-13 02:02:00,66.6,61.9,29.94,South,180,0.0,2.0,85,0.00,,,0.00,meteohub,2013-08-13 06:02:00,
2013-08-13 02:07:00,66.6,61.5,29.94,South,180,0.0,2.0,84,0.00,,,0.00,meteohub,2013-08-13 06:07:00,
2013-08-13 02:12:00,66.7,61.7,29.94,SSW,202,0.0,2.0,84,0.00,,,0.00,meteohub,2013-08-13 06:12:00,
2013-08-13 02:17:00,66.7,61.7,29.94,South,180,2.0,2.0,84,0.00,,,0.00,meteohub,2013-08-13 06:17:00,
2013-08-13 02:22:00,66.7,61.7,29.94,South,180,0.0,2.0,84,0.00,,,0.00,meteohub,2013-08-13 06:22:00,
2013-08-13 02:27:00,66.7,61.3,29.94,South,180,0.0,2.0,83,0.00,,,0.00,meteohub,2013-08-13 06:27:00,
2013-08-13 02:32:00,66.7,61.3,29.94,South,180,0.0,2.0,83,0.00,,,0.00,meteohub,2013-08-13 06:32:00,
2013-08-13 02:37:00,66.7,61.3,29.94,SSW,202,0.0,1.0,83,0.00,,,0.00,meteohub,2013-08-13 06:37:00,
2013-08-13 02:42:00,66.7,61.3,29.94,SSW,202,2.0,2.0,83,0.00,,,0.00,meteohub,2013-08-13 06:42:00,
2013-08-13 02:47:00,66.7,61.3,29.94,SSW,202,1.0,2.0,83,0.00,,,0.00,meteohub,2013-08-13 06:47:00,
2013-08-13 02:52:00,66.9,61.5,29.94,SSW,202,0.0,3.0,83,0.00,,,0.00,meteohub,2013-08-13 06:52:00,
2013-08-13 02:57:00,66.9,61.5,29.94,SSW,202,0.0,3.0,83,0.00,,,0.00,meteohub,2013-08-13 06:57:00,
2013-08-13 03:02:00,66.7,61.3,29.94,South,180,0.0,3.0,83,0.00,,,0.00,meteohub,2013-08-13 07:02:00,
2013-08-13 03:07:00,66.7,61.3,29.94,WSW,248,0.0,3.0,83,0.00,,,0.00,meteohub,2013-08-13 07:07:00,
2013-08-13 03:12:00,66.9,61.5,29.94,South,180,0.0,3.0,83,0.00,,,0.00,meteohub,2013-08-13 07:12:00,
2013-08-13 03:17:00,66.9,61.5,29.94,South,180,0.0,3.0,83,0.00,,,0.00,meteohub,2013-08-13 07:17:00,
2013-08-13 03:22:00,66.9,61.2,29.94,South,180,0.0,2.0,82,0.00,,,0.00,meteohub,2013-08-13 07:22:00,
2013-08-13 03:27:00,66.7,61.3,29.94,SW,225,0.0,0.0,83,0.00,,,0.00,meteohub,2013-08-13 07:27:00,
2013-08-13 03:32:00,66.4,61.0,29.94,SSW,202,0.0,0.0,83,0.00,,,0.00,meteohub,2013-08-13 07:32:00,
2013-08-13 03:37:00,66.6,61.2,29.94,South,180,0.0,0.0,83,0.00,,,0.00,meteohub,2013-08-13 07:37:00,
2013-08-13 03:42:00,66.7,61.2,29.94,South,180,0.0,2.0,82,0.00,,,0.00,meteohub,2013-08-13 07:42:00,
2013-08-13 03:47:00,66.7,61.2,29.94,SSE,158,0.0,2.0,82,0.00,,,0.00,meteohub,2013-08-13 07:47:00,
2013-08-13 03:52:00,66.7,61.2,29.94,South,180,0.0,1.0,82,0.00,,,0.00,meteohub,2013-08-13 07:52:00,
2013-08-13 03:57:00,66.9,61.0,29.94,South,180,3.0,3.0,81,0.00,,,0.00,meteohub,2013-08-13 07:57:00,
2013-08-13 04:02:00,66.9,61.0,29.94,SSW,202,0.0,3.0,81,0.00,,,0.00,meteohub,2013-08-13 08:02:00,
2013-08-13 04:07:00,67.1,61.2,29.94,SSW,202,0.0,3.0,81,0.00,,,0.00,meteohub,2013-08-13 08:07:00,
2013-08-13 04:12:00,67.1,61.2,29.94,SW,225,0.0,3.0,81,0.00,,,0.00,meteohub,2013-08-13 08:12:00,
2013-08-13 04:17:00,66.9,61.0,29.94,SSW,202,2.0,3.0,81,0.00,,,0.00,meteohub,2013-08-13 08:17:00,
2013-08-13 04:22:00,66.9,60.6,29.94,SW,225,1.0,3.0,80,0.00,,,0.00,meteohub,2013-08-13 08:22:00,
2013-08-13 04:27:00,66.9,60.6,29.94,South,180,0.0,3.0,80,0.00,,,0.00,meteohub,2013-08-13 08:27:00,
2013-08-13 04:32:00,66.9,60.6,29.94,SSW,202,1.0,3.0,80,0.00,,,0.00,meteohub,2013-08-13 08:32:00,
2013-08-13 04:37:00,66.9,60.6,29.94,WSW,248,0.0,3.0,80,0.00,,,0.00,meteohub,2013-08-13 08:37:00,
2013-08-13 04:42:00,66.9,60.6,29.94,South,180,1.0,3.0,80,0.00,,,0.00,meteohub,2013-08-13 08:42:00,
2013-08-13 04:47:00,66.9,60.6,29.94,SSW,202,0.0,3.0,80,0.00,,,0.00,meteohub,2013-08-13 08:47:00,
2013-08-13 04:52:00,66.9,60.6,29.94,SSW,202,1.0,3.0,80,0.00,,,0.00,meteohub,2013-08-13 08:52:00,
2013-08-13 04:57:00,66.7,60.4,29.94,South,180,0.0,3.0,80,0.00,,,0.00,meteohub,2013-08-13 08:57:00,
2013-08-13 05:02:00,66.7,60.4,29.94,SSW,202,2.0,3.0,80,0.00,,,0.00,meteohub,2013-08-13 09:02:00,
2013-08-13 05:07:00,66.6,60.3,29.94,SSW,202,0.0,3.0,80,0.00,,,0.00,meteohub,2013-08-13 09:07:00,
2013-08-13 05:12:00,66.6,60.3,29.94,South,180,1.0,3.0,80,0.00,,,0.00,meteohub,2013-08-13 09:12:00,
2013-08-13 05:17:00,66.4,60.1,29.94,SSW,202,1.0,3.0,80,0.00,,,0.00,meteohub,2013-08-13 09:17:00,
2013-08-13 05:22:00,66.4,60.1,29.91,South,180,0.0,3.0,80,0.00,,,0.00,meteohub,2013-08-13 09:22:00,
2013-08-13 05:27:00,66.4,60.1,29.91,SSW,202,0.0,3.0,80,0.00,,,0.00,meteohub,2013-08-13 09:27:00,
2013-08-13 05:32:00,66.4,60.1,29.91,WSW,248,0.0,3.0,80,0.00,,,0.00,meteohub,2013-08-13 09:32:00,
2013-08-13 05:37:00,66.4,60.1,29.94,SSE,158,0.0,0.0,80,0.00,,,0.00,meteohub,2013-08-13 09:37:00,
2013-08-13 05:42:00,66.4,60.1,29.94,SSW,202,0.0,2.0,80,0.00,,,0.00,meteohub,2013-08-13 09:42:00,
2013-08-13 05:47:00,66.4,60.1,29.94,South,180,0.0,2.0,80,0.00,,,0.00,meteohub,2013-08-13 09:47:00,
2013-08-13 05:52:00,66.4,60.1,29.91,South,180,0.0,2.0,80,0.00,,,0.00,meteohub,2013-08-13 09:52:00,
2013-08-13 05:57:00,66.4,60.4,29.91,SSW,202,0.0,2.0,81,0.00,,,0.00,meteohub,2013-08-13 09:57:00,
2013-08-13 06:02:00,66.4,60.4,29.91,SSW,202,0.0,2.0,81,0.00,,,0.00,meteohub,2013-08-13 10:02:00,
2013-08-13 06:07:00,66.4,60.4,29.91,SSW,202,0.0,2.0,81,0.00,,,0.00,meteohub,2013-08-13 10:07:00,
2013-08-13 06:12:00,66.4,60.4,29.91,South,180,0.0,1.0,81,0.00,,,0.00,meteohub,2013-08-13 10:12:00,
2013-08-13 06:17:00,66.2,60.3,29.91,SSW,202,0.0,2.0,81,0.00,,,0.00,meteohub,2013-08-13 10:17:00,
2013-08-13 06:22:00,66.4,60.4,29.91,SSE,158,0.0,2.0,81,0.00,,,0.00,meteohub,2013-08-13 10:22:00,
2013-08-13 06:27:00,66.4,60.8,29.91,South,180,0.0,2.0,82,0.00,,,0.00,meteohub,2013-08-13 10:27:00,
2013-08-13 06:32:00,66.4,60.8,29.91,South,180,0.0,2.0,82,0.00,,,0.00,meteohub,2013-08-13 10:32:00,
2013-08-13 06:37:00,66.4,60.8,29.94,South,180,0.0,0.0,82,0.00,,,0.00,meteohub,2013-08-13 10:37:00,
2013-08-13 06:42:00,66.4,60.8,29.94,WSW,248,0.0,0.0,82,0.00,,,0.00,meteohub,2013-08-13 10:42:00,
2013-08-13 06:47:00,66.4,61.0,29.94,WNW,292,0.0,0.0,83,0.00,,,0.00,meteohub,2013-08-13 10:47:00,
2013-08-13 06:52:00,66.4,61.3,29.91,South,180,0.0,0.0,84,0.00,,,0.00,meteohub,2013-08-13 10:52:00,
2013-08-13 06:57:00,66.6,61.5,29.91,SSW,202,0.0,0.0,84,0.00,,,0.00,meteohub,2013-08-13 10:57:00,
2013-08-13 07:02:00,66.6,61.5,29.91,South,180,0.0,2.0,84,0.00,,,0.00,meteohub,2013-08-13 11:02:00,
2013-08-13 07:07:00,66.6,62.2,29.91,SW,225,1.0,2.0,86,0.00,,,0.00,meteohub,2013-08-13 11:07:00,
2013-08-13 07:12:00,66.6,62.2,29.91,SSW,202,0.0,2.0,86,0.00,,,0.00,meteohub,2013-08-13 11:12:00,
2013-08-13 07:17:00,66.7,62.8,29.91,WSW,248,0.0,2.0,87,0.00,,,0.00,meteohub,2013-08-13 11:17:00,
2013-08-13 07:22:00,66.7,62.8,29.91,South,180,2.0,2.0,87,0.00,,,0.00,meteohub,2013-08-13 11:22:00,
2013-08-13 07:27:00,66.7,62.4,29.91,South,180,0.0,2.0,86,0.00,,,0.00,meteohub,2013-08-13 11:27:00,
2013-08-13 07:32:00,66.7,62.4,29.91,South,180,0.0,2.0,86,0.00,,,0.00,meteohub,2013-08-13 11:32:00,
2013-08-13 07:37:00,66.7,62.4,29.88,SW,225,0.0,2.0,86,0.00,,,0.00,meteohub,2013-08-13 11:37:00,
2013-08-13 07:42:00,66.9,63.0,29.88,South,180,0.0,0.0,87,0.00,,,0.00,meteohub,2013-08-13 11:42:00,
2013-08-13 07:47:00,67.1,62.8,29.88,SSW,202,0.0,0.0,86,0.00,,,0.00,meteohub,2013-08-13 11:47:00,
2013-08-13 07:57:00,67.3,63.7,29.88,SW,225,0.0,1.0,88,0.00,,,0.00,meteohub,2013-08-13 11:57:00,
2013-08-13 08:02:00,67.3,63.3,29.88,South,180,0.0,1.0,87,0.00,,,0.00,meteohub,2013-08-13 12:02:00,
2013-08-13 08:12:00,67.3,63.7,29.88,South,180,0.0,0.0,88,0.00,,,0.00,meteohub,2013-08-13 12:12:00,
2013-08-13 08:17:00,67.3,63.7,29.88,South,180,0.0,0.0,88,0.00,,,0.00,meteohub,2013-08-13 12:17:00,
2013-08-13 08:22:00,67.1,63.5,29.88,South,180,0.0,0.0,88,0.00,,,0.00,meteohub,2013-08-13 12:22:00,
2013-08-13 08:32:00,67.1,63.7,29.88,South,180,0.0,0.0,89,0.00,,,0.00,meteohub,2013-08-13 12:32:00,
2013-08-13 08:37:00,67.1,63.5,29.88,SSW,202,0.0,0.0,88,0.00,,,0.00,meteohub,2013-08-13 12:37:00,
2013-08-13 08:42:00,67.3,63.9,29.88,South,180,0.0,1.0,89,0.00,,,0.00,meteohub,2013-08-13 12:42:00,
2013-08-13 08:47:00,67.3,63.9,29.88,SSW,202,0.0,1.0,89,0.00,,,0.00,meteohub,2013-08-13 12:47:00,
2013-08-13 08:52:00,67.3,63.9,29.88,SSW,202,0.0,1.0,89,0.00,,,0.00,meteohub,2013-08-13 12:52:00,
2013-08-13 08:57:00,67.3,63.9,29.88,South,180,0.0,2.0,89,0.00,,,0.00,meteohub,2013-08-13 12:57:00,
2013-08-13 09:02:00,67.3,64.2,29.88,South,180,0.0,2.0,90,0.00,,,0.00,meteohub,2013-08-13 13:02:00,
2013-08-13 09:07:00,67.3,64.2,29.85,South,180,0.0,2.0,90,0.00,,,0.00,meteohub,2013-08-13 13:07:00,
2013-08-13 09:12:00,67.3,64.2,29.85,South,180,0.0,1.0,90,0.00,,,0.00,meteohub,2013-08-13 13:12:00,
2013-08-13 09:17:00,67.6,64.9,29.85,SSW,202,0.0,0.0,91,0.00,,,0.00,meteohub,2013-08-13 13:17:00,
2013-08-13 09:22:00,67.6,64.9,29.88,SSW,202,0.0,2.0,91,0.00,,,0.00,meteohub,2013-08-13 13:22:00,
2013-08-13 09:27:00,67.8,65.1,29.88,SW,225,0.0,2.0,91,0.00,,,0.00,meteohub,2013-08-13 13:27:00,
2013-08-13 09:32:00,67.8,65.5,29.88,South,180,1.0,2.0,92,0.00,,,0.00,meteohub,2013-08-13 13:32:00,
2013-08-13 09:37:00,68.0,65.7,29.88,WSW,248,0.0,2.0,92,0.00,,,0.00,meteohub,2013-08-13 13:37:00,
2013-08-13 09:42:00,68.0,65.7,29.88,SSW,202,0.0,2.0,92,0.00,,,0.00,meteohub,2013-08-13 13:42:00,
2013-08-13 09:47:00,68.2,65.8,29.88,WNW,292,0.0,2.0,92,0.00,,,0.00,meteohub,2013-08-13 13:47:00,
2013-08-13 09:52:00,68.2,65.8,29.88,ESE,112,0.0,2.0,92,0.00,,,0.00,meteohub,2013-08-13 13:52:00,
2013-08-13 09:57:00,68.4,66.0,29.88,South,180,0.0,2.0,92,0.00,,,0.00,meteohub,2013-08-13 13:57:00,
2013-08-13 10:02:00,68.4,66.0,29.88,SW,225,0.0,2.0,92,0.00,,,0.00,meteohub,2013-08-13 14:02:00,
2013-08-13 10:07:00,68.4,66.0,29.88,SW,225,0.0,1.0,92,0.00,,,0.00,meteohub,2013-08-13 14:07:00,
2013-08-13 10:12:00,68.4,66.0,29.88,South,180,0.0,1.0,92,0.00,,,0.00,meteohub,2013-08-13 14:12:00,
2013-08-13 10:17:00,68.5,66.2,29.88,SSW,202,0.0,0.0,92,0.00,,,0.00,meteohub,2013-08-13 14:17:00,
2013-08-13 10:22:00,68.5,66.4,29.88,SSE,158,0.0,0.0,93,0.00,,,0.00,meteohub,2013-08-13 14:22:00,
2013-08-13 10:27:00,68.4,66.2,29.88,SSE,158,0.0,0.0,93,0.00,,,0.00,meteohub,2013-08-13 14:27:00,
2013-08-13 10:32:00,68.5,66.2,29.88,South,180,0.0,1.0,92,0.00,,,0.00,meteohub,2013-08-13 14:32:00,
2013-08-13 10:37:00,68.5,66.4,29.88,ESE,112,0.0,1.0,93,0.00,,,0.00,meteohub,2013-08-13 14:37:00,
2013-08-13 10:42:00,68.7,66.6,29.88,ESE,112,0.0,1.0,93,0.00,,,0.00,meteohub,2013-08-13 14:42:00,
2013-08-13 10:47:00,68.9,66.7,29.88,SSE,158,2.0,2.0,93,0.00,,,0.00,meteohub,2013-08-13 14:47:00,
2013-08-13 10:52:00,69.1,66.7,29.88,SSW,202,0.0,2.0,92,0.00,,,0.00,meteohub,2013-08-13 14:52:00,
2013-08-13 10:57:00,69.1,66.7,29.88,SW,225,0.0,2.0,92,0.00,,,0.00,meteohub,2013-08-13 14:57:00,
2013-08-13 11:02:00,69.1,66.9,29.88,South,180,1.0,2.0,93,0.00,,,0.00,meteohub,2013-08-13 15:02:00,
2013-08-13 11:07:00,69.3,66.9,29.91,South,180,0.0,1.0,92,0.00,,,0.00,meteohub,2013-08-13 15:07:00,
2013-08-13 11:12:00,69.3,66.9,29.91,South,180,0.0,2.0,92,0.00,,,0.00,meteohub,2013-08-13 15:12:00,
2013-08-13 11:17:00,69.3,66.9,29.91,West,270,0.0,2.0,92,0.00,,,0.00,meteohub,2013-08-13 15:17:00,
2013-08-13 11:22:00,69.3,66.9,29.88,West,270,0.0,3.0,92,0.00,,,0.00,meteohub,2013-08-13 15:22:00,
2013-08-13 11:27:00,69.4,67.1,29.88,South,180,0.0,3.0,92,0.00,,,0.00,meteohub,2013-08-13 15:27:00,
2013-08-13 11:32:00,69.4,67.1,29.88,South,180,0.0,3.0,92,0.00,,,0.00,meteohub,2013-08-13 15:32:00,
2013-08-13 11:37:00,69.3,66.9,29.88,ESE,112,0.0,3.0,92,0.00,,,0.00,meteohub,2013-08-13 15:37:00,
2013-08-13 11:42:00,69.4,67.1,29.88,ENE,68,0.0,1.0,92,0.00,,,0.00,meteohub,2013-08-13 15:42:00,
2013-08-13 11:47:00,69.4,67.1,29.88,ENE,68,0.0,1.0,92,0.00,,,0.00,meteohub,2013-08-13 15:47:00,
2013-08-13 11:52:00,69.4,67.1,29.88,ENE,68,0.0,0.0,92,0.00,,,0.00,meteohub,2013-08-13 15:52:00,
2013-08-13 12:02:00,69.8,66.7,29.88,South,180,0.0,0.0,90,0.00,,,0.00,meteohub,2013-08-13 16:02:00,
2013-08-13 12:07:00,70.0,66.9,29.88,SSW,202,0.0,0.0,90,0.00,,,0.00,meteohub,2013-08-13 16:07:00,
2013-08-13 12:12:00,70.0,66.9,29.88,WSW,248,0.0,0.0,90,0.00,,,0.00,meteohub,2013-08-13 16:12:00,
2013-08-13 12:17:00,70.2,67.5,29.88,South,180,0.0,2.0,91,0.00,,,0.00,meteohub,2013-08-13 16:17:00,
2013-08-13 12:22:00,70.2,67.5,29.88,SSE,158,0.0,2.0,91,0.00,,,0.00,meteohub,2013-08-13 16:22:00,
2013-08-13 12:27:00,70.3,67.6,29.88,ESE,112,0.0,2.0,91,0.00,,,0.00,meteohub,2013-08-13 16:27:00,
2013-08-13 12:32:00,70.5,67.5,29.88,West,270,2.0,5.0,90,0.00,,,0.00,meteohub,2013-08-13 16:32:00,
2013-08-13 12:37:00,70.7,66.6,29.88,WNW,292,1.0,5.0,87,0.00,,,0.00,meteohub,2013-08-13 16:37:00,
2013-08-13 12:42:00,70.7,66.6,29.88,SW,225,2.0,5.0,87,0.00,,,0.00,meteohub,2013-08-13 16:42:00,
2013-08-13 12:47:00,70.5,65.8,29.88,WSW,248,1.0,3.0,85,0.00,,,0.00,meteohub,2013-08-13 16:47:00,
2013-08-13 12:52:00,70.5,65.8,29.85,South,180,0.0,3.0,85,0.00,,,0.00,meteohub,2013-08-13 16:52:00,
2013-08-13 12:57:00,70.3,66.0,29.85,SW,225,0.0,3.0,86,0.00,,,0.00,meteohub,2013-08-13 16:57:00,
2013-08-13 13:02:00,70.2,65.8,29.85,South,180,0.0,3.0,86,0.00,,,0.00,meteohub,2013-08-13 17:02:00,
2013-08-13 13:07:00,70.2,66.0,29.85,WSW,248,0.0,3.0,87,0.00,,,0.00,meteohub,2013-08-13 17:07:00,
2013-08-13 13:12:00,70.0,66.2,29.85,WSW,248,0.0,0.0,88,0.00,,,0.00,meteohub,2013-08-13 17:12:00,
2013-08-13 13:22:00,70.0,66.6,29.85,WNW,292,1.0,2.0,89,0.00,,,0.00,meteohub,2013-08-13 17:22:00,
2013-08-13 13:27:00,70.0,66.6,29.85,WNW,292,1.0,3.0,89,0.00,,,0.00,meteohub,2013-08-13 17:27:00,
2013-08-13 13:32:00,70.2,66.4,29.85,South,180,0.0,5.0,88,0.00,,,0.00,meteohub,2013-08-13 17:32:00,
2013-08-13 13:37:00,70.2,66.0,29.85,SSE,158,2.0,5.0,87,0.00,,,0.00,meteohub,2013-08-13 17:37:00,
2013-08-13 13:42:00,70.2,66.0,29.85,SW,225,0.0,5.0,87,0.00,,,0.00,meteohub,2013-08-13 17:42:00,
2013-08-13 13:47:00,70.2,66.0,29.85,SSW,202,0.0,3.0,87,0.00,,,0.00,meteohub,2013-08-13 17:47:00,
2013-08-13 13:52:00,70.3,66.2,29.85,WNW,292,1.0,3.0,87,0.00,,,0.00,meteohub,2013-08-13 17:52:00,
2013-08-13 13:57:00,70.3,66.2,29.85,NNE,22,0.0,3.0,87,0.00,,,0.00,meteohub,2013-08-13 17:57:00,
2013-08-13 14:02:00,70.3,66.0,29.85,NNW,338,2.0,3.0,86,0.00,,,0.00,meteohub,2013-08-13 18:02:00,
2013-08-13 14:07:00,70.3,65.3,29.82,West,270,0.0,4.0,84,0.00,,,0.00,meteohub,2013-08-13 18:07:00,
2013-08-13 14:12:00,70.3,65.3,29.82,WSW,248,4.0,4.0,84,0.00,,,0.00,meteohub,2013-08-13 18:12:00,
2013-08-13 14:17:00,70.2,63.3,29.82,SW,225,2.0,4.0,79,0.00,,,0.00,meteohub,2013-08-13 18:17:00,
2013-08-13 14:22:00,70.3,63.9,29.82,SSE,158,1.0,4.0,80,0.00,,,0.00,meteohub,2013-08-13 18:22:00,
2013-08-13 14:27:00,70.2,63.0,29.82,WSW,248,3.0,4.0,78,0.00,,,0.00,meteohub,2013-08-13 18:27:00,
2013-08-13 14:32:00,70.3,62.8,29.82,WSW,248,0.0,4.0,77,0.00,,,0.00,meteohub,2013-08-13 18:32:00,
2013-08-13 14:37:00,70.3,62.8,29.85,South,180,0.0,4.0,77,0.00,,,0.00,meteohub,2013-08-13 18:37:00,
2013-08-13 14:42:00,70.5,63.3,29.85,South,180,0.0,4.0,78,0.00,,,0.00,meteohub,2013-08-13 18:42:00,
2013-08-13 14:47:00,70.5,63.3,29.85,SSE,158,0.0,4.0,78,0.00,,,0.00,meteohub,2013-08-13 18:47:00,
2013-08-13 14:52:00,70.7,63.5,29.82,NNE,22,3.0,4.0,78,0.00,,,0.00,meteohub,2013-08-13 18:52:00,
2013-08-13 14:57:00,70.7,63.5,29.82,West,270,0.0,4.0,78,0.00,,,0.00,meteohub,2013-08-13 18:57:00,
2013-08-13 15:02:00,70.9,63.7,29.82,WSW,248,2.0,3.0,78,0.00,,,0.00,meteohub,2013-08-13 19:02:00,
2013-08-13 15:07:00,70.9,63.3,29.82,ENE,68,2.0,3.0,77,0.00,,,0.00,meteohub,2013-08-13 19:07:00,
2013-08-13 15:17:00,71.2,61.7,29.82,ESE,112,4.0,4.0,72,0.00,,,0.00,meteohub,2013-08-13 19:17:00,
2013-08-13 15:22:00,71.4,62.2,29.82,NNW,338,2.0,4.0,73,0.00,,,0.00,meteohub,2013-08-13 19:22:00,
2013-08-13 15:27:00,71.4,62.2,29.82,ESE,112,3.0,6.0,73,0.00,,,0.00,meteohub,2013-08-13 19:27:00,
2013-08-13 15:32:00,71.4,61.9,29.82,East,90,1.0,6.0,72,0.00,,,0.00,meteohub,2013-08-13 19:32:00,
2013-08-13 15:37:00,71.4,62.8,29.82,SE,135,0.0,6.0,74,0.00,,,0.00,meteohub,2013-08-13 19:37:00,
2013-08-13 15:42:00,71.4,62.8,29.82,South,180,3.0,3.0,74,0.00,,,0.00,meteohub,2013-08-13 19:42:00,
2013-08-13 15:47:00,71.4,62.8,29.82,NNE,22,2.0,3.0,74,0.00,,,0.00,meteohub,2013-08-13 19:47:00,
2013-08-13 15:52:00,71.4,62.2,29.82,ENE,68,2.0,3.0,73,0.00,,,0.00,meteohub,2013-08-13 19:52:00,
2013-08-13 15:57:00,71.6,63.0,29.82,East,90,1.0,4.0,74,0.00,,,0.00,meteohub,2013-08-13 19:57:00,
2013-08-13 16:02:00,71.6,63.0,29.82,South,180,0.0,4.0,74,0.00,,,0.00,meteohub,2013-08-13 20:02:00,
2013-08-13 16:07:00,72.0,63.1,29.79,NNE,22,3.0,4.0,74,0.00,,,0.00,meteohub,2013-08-13 20:07:00,
2013-08-13 16:12:00,72.0,63.1,29.79,SSW,202,0.0,4.0,74,0.00,,,0.00,meteohub,2013-08-13 20:12:00,
2013-08-13 16:17:00,72.1,63.9,29.79,NNE,22,3.0,4.0,75,0.00,,,0.00,meteohub,2013-08-13 20:17:00,
2013-08-13 16:22:00,72.1,63.9,29.79,South,180,3.0,4.0,75,0.00,,,0.00,meteohub,2013-08-13 20:22:00,
2013-08-13 16:32:00,72.3,63.1,29.79,SSW,202,3.0,5.0,73,0.00,,,0.00,meteohub,2013-08-13 20:32:00,
2013-08-13 16:37:00,72.3,62.8,29.76,WSW,248,1.0,4.0,72,0.00,,,0.00,meteohub,2013-08-13 20:37:00,
2013-08-13 16:42:00,72.3,62.8,29.76,NE,45,5.0,5.0,72,0.00,,,0.00,meteohub,2013-08-13 20:42:00,
2013-08-13 16:47:00,72.5,63.0,29.76,South,180,0.0,5.0,72,0.00,,,0.00,meteohub,2013-08-13 20:47:00,
2013-08-13 16:52:00,72.7,62.8,29.76,SSE,158,1.0,5.0,71,0.00,,,0.00,meteohub,2013-08-13 20:52:00,
2013-08-13 16:57:00,72.7,61.5,29.76,SW,225,3.0,5.0,68,0.00,,,0.00,meteohub,2013-08-13 20:57:00,
2013-08-13 17:02:00,72.7,61.9,29.76,West,270,0.0,3.0,69,0.00,,,0.00,meteohub,2013-08-13 21:02:00,
2013-08-13 17:07:00,72.5,61.7,29.76,SSE,158,2.0,3.0,69,0.00,,,0.00,meteohub,2013-08-13 21:07:00,
2013-08-13 17:12:00,72.3,60.8,29.76,WSW,248,2.0,4.0,67,0.00,,,0.00,meteohub,2013-08-13 21:12:00,
2013-08-13 17:17:00,72.5,60.1,29.76,WSW,248,2.0,4.0,65,0.00,,,0.00,meteohub,2013-08-13 21:17:00,
2013-08-13 17:22:00,72.7,60.3,29.73,SSW,202,3.0,4.0,65,0.00,,,0.00,meteohub,2013-08-13 21:22:00,
2013-08-13 17:27:00,72.9,60.8,29.73,NNE,22,0.0,4.0,66,0.00,,,0.00,meteohub,2013-08-13 21:27:00,
2013-08-13 17:32:00,73.0,61.5,29.73,SW,225,1.0,3.0,67,0.00,,,0.00,meteohub,2013-08-13 21:32:00,
2013-08-13 17:37:00,73.2,62.1,29.76,SW,225,0.0,4.0,68,0.00,,,0.00,meteohub,2013-08-13 21:37:00,
2013-08-13 17:42:00,73.0,61.9,29.76,South,180,3.0,4.0,68,0.00,,,0.00,meteohub,2013-08-13 21:42:00,
2013-08-13 17:47:00,72.9,61.3,29.76,South,180,0.0,4.0,67,0.00,,,0.00,meteohub,2013-08-13 21:47:00,
2013-08-13 17:52:00,72.9,61.7,29.76,SSW,202,1.0,3.0,68,0.00,,,0.00,meteohub,2013-08-13 21:52:00,
2013-08-13 17:57:00,73.0,62.2,29.76,SSW,202,0.0,4.0,69,0.00,,,0.00,meteohub,2013-08-13 21:57:00,
2013-08-13 18:02:00,72.9,62.1,29.76,SW,225,0.0,4.0,69,0.00,,,0.00,meteohub,2013-08-13 22:02:00,
2013-08-13 18:07:00,72.7,61.9,29.73,SSW,202,3.0,3.0,69,0.00,,,0.00,meteohub,2013-08-13 22:07:00,
2013-08-13 18:12:00,72.7,61.9,29.73,SSE,158,0.0,4.0,69,0.00,,,0.00,meteohub,2013-08-13 22:12:00,
2013-08-13 18:17:00,72.7,61.9,29.73,West,270,1.0,4.0,69,0.00,,,0.00,meteohub,2013-08-13 22:17:00,
2013-08-13 18:22:00,72.5,61.7,29.76,West,270,2.0,4.0,69,0.00,,,0.00,meteohub,2013-08-13 22:22:00,
2013-08-13 18:27:00,72.3,61.5,29.76,SSE,158,0.0,3.0,69,0.00,,,0.00,meteohub,2013-08-13 22:27:00,
2013-08-13 18:32:00,72.3,61.5,29.76,NW,315,1.0,3.0,69,0.00,,,0.00,meteohub,2013-08-13 22:32:00,
2013-08-13 18:37:00,72.3,62.1,29.76,SSW,202,0.0,3.0,70,0.00,,,0.00,meteohub,2013-08-13 22:37:00,
2013-08-13 18:42:00,72.1,61.9,29.76,South,180,0.0,2.0,70,0.00,,,0.00,meteohub,2013-08-13 22:42:00,
2013-08-13 18:47:00,72.0,62.1,29.76,NE,45,2.0,2.0,71,0.00,,,0.00,meteohub,2013-08-13 22:47:00,
2013-08-13 18:52:00,71.8,61.5,29.76,SW,225,0.0,2.0,70,0.00,,,0.00,meteohub,2013-08-13 22:52:00,
2013-08-13 18:57:00,71.8,61.5,29.76,SW,225,0.0,2.0,70,0.00,,,0.00,meteohub,2013-08-13 22:57:00,
2013-08-13 19:02:00,71.8,61.9,29.76,SW,225,0.0,2.0,71,0.00,,,0.00,meteohub,2013-08-13 23:02:00,
2013-08-13 19:12:00,71.1,61.9,29.76,South,180,0.0,1.0,73,0.00,,,0.00,meteohub,2013-08-13 23:12:00,
2013-08-13 19:17:00,71.1,61.9,29.76,South,180,0.0,0.0,73,0.00,,,0.00,meteohub,2013-08-13 23:17:00,
2013-08-13 19:22:00,70.7,62.1,29.76,South,180,0.0,0.0,74,0.00,,,0.00,meteohub,2013-08-13 23:22:00,
2013-08-13 19:27:00,70.3,62.1,29.76,SE,135,0.0,0.0,75,0.00,,,0.00,meteohub,2013-08-13 23:27:00,
2013-08-13 19:32:00,70.2,62.2,29.76,SE,135,0.0,0.0,76,0.00,,,0.00,meteohub,2013-08-13 23:32:00,
2013-08-13 19:37:00,70.0,62.1,29.76,SE,135,0.0,0.0,76,0.00,,,0.00,meteohub,2013-08-13 23:37:00,
2013-08-13 19:42:00,69.6,62.1,29.76,SE,135,0.0,0.0,77,0.00,,,0.00,meteohub,2013-08-13 23:42:00,
2013-08-13 19:47:00,69.4,62.2,29.76,SE,135,0.0,0.0,78,0.00,,,0.00,meteohub,2013-08-13 23:47:00,
2013-08-13 19:52:00,69.1,62.2,29.76,SE,135,0.0,0.0,79,0.00,,,0.00,meteohub,2013-08-13 23:52:00,
2013-08-13 19:57:00,68.9,62.1,29.76,SE,135,0.0,0.0,79,0.00,,,0.00,meteohub,2013-08-13 23:57:00,
2013-08-13 20:02:00,68.7,61.9,29.76,SE,135,0.0,0.0,79,0.00,,,0.00,meteohub,2013-08-14 00:02:00,
2013-08-13 20:07:00,68.5,62.4,29.76,SE,135,0.0,0.0,81,0.00,,,0.00,meteohub,2013-08-14 00:07:00,
2013-08-13 20:12:00,68.4,62.2,29.76,SE,135,0.0,0.0,81,0.00,,,0.00,meteohub,2013-08-14 00:12:00,
2013-08-13 20:17:00,68.2,62.1,29.76,SE,135,0.0,0.0,81,0.00,,,0.00,meteohub,2013-08-14 00:17:00,
2013-08-13 20:22:00,68.0,62.2,29.76,SE,135,0.0,0.0,82,0.00,,,0.00,meteohub,2013-08-14 00:22:00,
2013-08-13 20:27:00,67.8,62.4,29.76,SE,135,0.0,0.0,83,0.00,,,0.00,meteohub,2013-08-14 00:27:00,
2013-08-13 20:32:00,67.6,62.2,29.76,SE,135,0.0,0.0,83,0.00,,,0.00,meteohub,2013-08-14 00:32:00,
2013-08-13 20:37:00,67.6,62.6,29.76,SE,135,0.0,0.0,84,0.00,,,0.00,meteohub,2013-08-14 00:37:00,
2013-08-13 20:42:00,67.8,63.1,29.76,SE,135,0.0,0.0,85,0.00,,,0.00,meteohub,2013-08-14 00:42:00,
2013-08-13 20:47:00,67.8,63.1,29.76,SE,135,0.0,0.0,85,0.00,,,0.00,meteohub,2013-08-14 00:47:00,
2013-08-13 20:52:00,67.8,63.1,29.76,SE,135,0.0,0.0,85,0.00,,,0.00,meteohub,2013-08-14 00:52:00,
2013-08-13 20:57:00,67.8,63.1,29.76,SE,135,0.0,0.0,85,0.00,,,0.00,meteohub,2013-08-14 00:57:00,
2013-08-13 21:02:00,67.6,63.0,29.76,SSE,158,0.0,0.0,85,0.00,,,0.00,meteohub,2013-08-14 01:02:00,
2013-08-13 21:07:00,67.6,63.0,29.76,SSE,158,0.0,0.0,85,0.00,,,0.00,meteohub,2013-08-14 01:07:00,
2013-08-13 21:12:00,67.3,63.0,29.76,SSE,158,0.0,0.0,86,0.00,,,0.00,meteohub,2013-08-14 01:12:00,
2013-08-13 21:17:00,67.1,62.8,29.76,SSE,158,0.0,0.0,86,0.00,,,0.00,meteohub,2013-08-14 01:17:00,
2013-08-13 21:22:00,67.1,62.8,29.76,SW,225,0.0,0.0,86,0.00,,,0.00,meteohub,2013-08-14 01:22:00,
2013-08-13 21:27:00,66.7,62.4,29.76,SW,225,0.0,0.0,86,0.00,,,0.00,meteohub,2013-08-14 01:27:00,
2013-08-13 21:32:00,66.6,62.6,29.76,SW,225,0.0,0.0,87,0.00,,,0.00,meteohub,2013-08-14 01:32:00,
2013-08-13 21:37:00,66.4,62.8,29.76,SW,225,0.0,0.0,88,0.00,,,0.00,meteohub,2013-08-14 01:37:00,
2013-08-13 21:42:00,66.2,62.6,29.76,South,180,0.0,0.0,88,0.00,,,0.00,meteohub,2013-08-14 01:42:00,
2013-08-13 21:47:00,66.2,62.6,29.76,South,180,0.0,0.0,88,0.00,,,0.00,meteohub,2013-08-14 01:47:00,
2013-08-13 21:52:00,66.4,63.0,29.76,South,180,0.0,0.0,89,0.00,,,0.00,meteohub,2013-08-14 01:52:00,
2013-08-13 21:57:00,66.4,63.0,29.76,South,180,0.0,0.0,89,0.00,,,0.00,meteohub,2013-08-14 01:57:00,
2013-08-13 22:02:00,66.2,62.8,29.76,South,180,0.0,0.0,89,0.00,,,0.00,meteohub,2013-08-14 02:02:00,
2013-08-13 22:07:00,66.4,63.3,29.79,South,180,0.0,0.0,90,0.00,,,0.00,meteohub,2013-08-14 02:07:00,
2013-08-13 22:12:00,66.4,63.7,29.79,South,180,0.0,0.0,91,0.00,,,0.00,meteohub,2013-08-14 02:12:00,
2013-08-13 22:17:00,66.4,63.7,29.79,South,180,0.0,0.0,91,0.00,,,0.00,meteohub,2013-08-14 02:17:00,
2013-08-13 22:22:00,66.6,64.2,29.76,South,180,0.0,0.0,92,0.00,,,0.00,meteohub,2013-08-14 02:22:00,
2013-08-13 22:27:00,66.6,64.2,29.76,South,180,0.0,0.0,92,0.00,,,0.00,meteohub,2013-08-14 02:27:00,
2013-08-13 22:32:00,66.6,64.2,29.76,South,180,0.0,1.0,92,0.00,,,0.00,meteohub,2013-08-14 02:32:00,
2013-08-13 22:37:00,66.7,64.4,29.76,SSE,158,0.0,1.0,92,0.00,,,0.00,meteohub,2013-08-14 02:37:00,
2013-08-13 22:42:00,66.7,64.0,29.76,SSW,202,3.0,3.0,91,0.00,,,0.00,meteohub,2013-08-14 02:42:00,
2013-08-13 22:47:00,66.7,64.0,29.76,SSW,202,0.0,3.0,91,0.00,,,0.00,meteohub,2013-08-14 02:47:00,
2013-08-13 22:52:00,66.6,63.9,29.76,SSW,202,0.0,3.0,91,0.00,,,0.00,meteohub,2013-08-14 02:52:00,
2013-08-13 22:57:00,66.6,63.9,29.76,SSW,202,0.0,3.0,91,0.00,,,0.00,meteohub,2013-08-14 02:57:00,
2013-08-13 23:02:00,66.4,63.7,29.76,SSW,202,0.0,1.0,91,0.00,,,0.00,meteohub,2013-08-14 03:02:00,
2013-08-13 23:07:00,66.2,63.5,29.76,South,180,0.0,0.0,91,0.00,,,0.00,meteohub,2013-08-14 03:07:00,
2013-08-13 23:17:00,66.2,63.5,29.76,South,180,0.0,0.0,91,0.00,,,0.00,meteohub,2013-08-14 03:17:00,
2013-08-13 23:22:00,66.4,64.0,29.76,South,180,2.0,0.0,92,0.00,,,0.00,meteohub,2013-08-14 03:22:00,
2013-08-13 23:27:00,66.6,63.9,29.76,South,180,0.0,3.0,91,0.00,,,0.00,meteohub,2013-08-14 03:27:00,
2013-08-13 23:32:00,66.6,63.9,29.76,South,180,1.0,3.0,91,0.00,,,0.00,meteohub,2013-08-14 03:32:00,
2013-08-13 23:37:00,66.7,64.0,29.76,South,180,0.0,3.0,91,0.00,,,0.00,meteohub,2013-08-14 03:37:00,
2013-08-13 23:42:00,66.6,63.5,29.76,South,180,0.0,1.0,90,0.00,,,0.00,meteohub,2013-08-14 03:42:00,
2013-08-13 23:47:00,66.4,63.7,29.76,South,180,0.0,1.0,91,0.00,,,0.00,meteohub,2013-08-14 03:47:00,
2013-08-13 23:52:00,66.4,63.7,29.76,South,180,0.0,0.0,91,0.00,,,0.00,meteohub,2013-08-14 03:52:00,
2013-08-13 23:57:00,66.4,63.7,29.76,South,180,0.0,0.0,91,0.00,,,0.00,meteohub,2013-08-14 03:57:00,